Location: Unspecified
(52.4292°N, 19.3359°E)
Time: 00:58:26
(UTC+02:00)

Altair - Pass Details

Date: 23 May 2024
Orbit: 1502 x 1682 km, 47.2° (Epoch: 20 June)

Event Time Altitude Azimuth Distance (km) Brightness Sun altitude
Rises 11:49:10 0° 241° (WSW) 4,836 10.2 56.8°
Reaches altitude 10° 11:52:19 10° 237° (WSW) 3,873 9.8 57.0°
Maximum altitude 12:01:58 58° 162° (SSE) 1,897 12.9 57.5°
Drops below altitude 10° 12:11:49 10° 87° (E) 3,948 9.9 57.8°
Sets 12:15:03 0° 84° (E) 4,935 10.2 57.9°
